period_start,C,m1,H,J0,J1,J2,J3,J4,J5,JA,JB,JC,JD,JJ,JK,JN,#
2015-12-30 00:01:54,0.15,3.14,0.00,20.83,24.17,27.92,14.90,51.86,1024.15,2044.98,2487.11,2357.79,2630.47,600.43,605.35,31.18,0000 0000 0000 0000 000000
2015-12-30 00:06:56,0.13,3.15,0.00,20.83,24.17,28.00,14.82,51.73,1023.94,2044.99,2485.24,2356.36,2628.77,600.03,604.77,31.23,0000 0000 0000 0000 000000
2015-12-30 00:11:57,0.12,3.16,0.00,20.82,24.17,28.01,14.85,51.73,1023.93,2044.99,2483.66,2354.99,2627.28,600.07,604.85,31.28,0000 0000 0000 0000 000000
2015-12-30 00:16:59,0.16,3.16,0.00,20.80,24.17,27.95,14.81,51.88,1023.93,2044.99,2481.71,2353.48,2625.64,599.98,604.79,31.33,0000 0000 0000 0000 000000
2015-12-30 00:21:59,0.17,3.17,0.00,20.78,24.16,27.92,14.75,52.00,1023.90,2044.99,2479.61,2351.69,2623.68,599.88,604.74,31.38,0000 0000 0000 0000 000000
2015-12-30 00:27:01,0.23,3.18,0.00,20.78,24.15,27.96,14.74,52.08,1023.85,2044.99,2477.10,2349.35,2621.24,599.79,604.71,31.43,0000 0000 0000 0000 000000
2015-12-30 00:32:02,0.16,3.19,0.00,20.75,24.15,27.96,14.72,51.97,1023.56,2044.99,2474.91,2347.26,2618.88,599.74,604.43,31.48,0000 0000 0000 0000 000000
2015-12-30 00:37:04,0.17,3.20,0.00,20.74,24.13,27.99,14.78,51.93,1023.45,2044.99,2472.83,2345.54,2616.83,599.88,604.45,31.53,0000 0000 0000 0000 000000
2015-12-30 00:42:05,0.17,3.21,0.00,20.70,24.12,27.98,14.81,51.83,1023.58,2044.99,2470.74,2343.63,2614.71,599.89,604.54,31.58,0000 0000 0000 0000 000000
2015-12-30 00:47:07,0.10,3.22,0.00,20.69,24.11,27.91,14.77,51.60,1023.91,2044.99,2469.17,2342.30,2613.26,600.22,605.22,31.63,0000 0000 0000 0000 000000
2015-12-30 00:52:08,0.11,3.22,0.00,20.66,24.10,27.94,14.85,51.46,1023.94,2044.99,2467.76,2341.09,2611.89,599.98,605.08,31.68,0000 0000 0000 0000 000000
2015-12-30 00:57:10,0.11,3.23,0.00,20.63,24.08,27.95,14.78,51.38,1023.95,2044.99,2466.44,2340.02,2610.59,599.95,605.07,31.73,0000 0000 0000 0000 000000
2015-12-30 01:02:11,0.09,3.23,0.00,20.61,24.07,27.88,14.77,51.32,1023.96,2044.99,2465.08,2339.03,2609.52,600.32,605.47,31.78,0000 0000 0000 0000 000000
2015-12-30 01:07:12,0.10,3.24,0.00,20.59,24.05,27.89,14.84,51.26,1024.09,2045.00,2463.74,2337.99,2608.48,600.14,605.48,31.83,0000 0000 0000 0000 000000
2015-12-30 01:12:14,0.10,3.24,0.00,20.58,24.05,27.85,14.92,51.29,1024.23,2045.02,2462.19,2336.90,2607.20,600.51,605.94,31.88,0000 0000 0000 0000 000000
2015-12-30 01:17:15,0.13,3.25,0.00,20.57,24.02,27.89,14.76,51.24,1024.21,2045.02,2460.71,2335.68,2605.83,600.12,605.48,31.93,0000 0000 0000 0000 000000
2015-12-30 01:22:17,0.10,3.26,0.00,20.57,24.01,27.83,14.79,51.23,1024.05,2045.04,2459.43,2334.67,2604.65,599.62,605.00,31.98,0000 0000 0000 0000 000000
2015-12-30 01:27:18,0.10,3.26,0.00,20.54,24.00,27.78,14.83,51.49,1023.94,2045.05,2457.99,2333.57,2603.50,599.77,605.08,32.03,0000 0000 0000 0000 000000
2015-12-30 01:32:19,0.10,3.27,0.00,20.54,23.99,27.78,14.78,51.33,1024.15,2045.05,2456.62,2332.49,2602.33,599.85,605.39,32.08,0000 0000 0000 0000 000000
2015-12-30 01:37:20,0.10,3.27,0.00,20.54,23.97,27.77,14.76,51.49,1024.14,2045.05,2455.19,2331.44,2601.04,599.83,605.30,32.13,0000 0000 0000 0000 000000
2015-12-30 01:42:22,0.12,3.28,0.00,20.53,23.96,27.77,14.79,51.60,1023.95,2045.09,2453.62,2330.20,2599.76,600.01,605.36,32.18,0000 0000 0000 0000 000000
2015-12-30 01:47:23,0.16,3.29,0.00,20.54,23.95,27.77,14.87,51.53,1024.00,2045.22,2451.76,2328.84,2598.34,600.32,605.71,32.23,0000 0000 0000 0000 000000
2015-12-30 01:52:24,0.15,3.29,0.00,20.55,23.94,27.75,14.80,51.67,1024.07,2045.50,2450.19,2327.65,2596.91,599.63,605.06,32.28,0000 0000 0000 0000 000000
2015-12-30 01:57:25,0.13,3.30,0.00,20.53,23.92,27.73,14.79,51.67,1024.31,2045.73,2448.67,2326.42,2595.60,600.01,605.64,32.34,0000 0000 0000 0000 000000
2015-12-30 02:02:26,0.11,3.31,0.00,20.55,23.91,27.69,14.70,51.51,1024.30,2045.73,2447.15,2325.17,2594.26,599.39,605.03,32.39,0000 0000 0000 0000 000000
2015-12-30 02:07:28,0.13,3.31,0.00,20.54,23.90,27.70,14.86,51.49,1024.32,2045.84,2445.63,2323.95,2592.86,600.24,605.82,32.44,0000 0000 0000 0000 000000
2015-12-30 02:12:29,0.12,3.32,0.00,20.54,23.90,27.70,14.84,51.38,1024.24,2045.93,2444.12,2322.79,2591.56,600.46,605.96,32.49,0000 0000 0000 0000 000000
2015-12-30 02:17:30,0.12,3.33,0.00,20.55,23.87,27.70,14.77,51.56,1023.96,2045.97,2442.61,2321.57,2590.26,599.83,605.20,32.54,0000 0000 0000 0000 000000
2015-12-30 02:22:31,0.10,3.33,0.00,20.53,23.87,27.72,14.94,51.46,1023.94,2045.97,2441.22,2320.45,2589.00,600.14,605.60,32.59,0000 0000 0000 0000 000000
2015-12-30 02:27:33,0.11,3.34,0.00,20.53,23.87,27.68,14.87,51.48,1023.95,2045.98,2439.81,2319.39,2587.77,600.29,605.69,32.64,0000 0000 0000 0000 000000
2015-12-30 02:32:34,0.10,3.34,0.00,20.51,23.87,27.69,14.85,51.41,1023.95,2045.99,2438.48,2318.38,2586.58,600.08,605.42,32.69,0000 0000 0000 0000 000000
2015-12-30 02:37:35,0.09,3.35,0.00,20.49,23.86,27.68,14.72,51.42,1023.96,2045.98,2437.32,2317.42,2585.49,599.69,605.12,32.74,0000 0000 0000 0000 000000
2015-12-30 02:42:37,0.09,3.35,0.00,20.47,23.85,27.68,14.79,51.45,1024.11,2045.99,2435.99,2316.35,2584.35,599.85,605.43,32.79,0000 0000 0000 0000 000000
2015-12-30 02:47:38,0.10,3.36,0.00,20.45,23.85,27.67,14.87,51.58,1023.97,2045.99,2434.75,2315.35,2583.18,600.10,605.65,32.84,0000 0000 0000 0000 000000
2015-12-30 02:52:39,0.09,3.36,0.00,20.44,23.85,27.66,14.75,51.68,1023.95,2045.99,2433.48,2314.31,2582.07,599.84,605.43,32.89,0000 0000 0000 0000 000000
2015-12-30 02:57:40,0.10,3.37,0.00,20.43,23.85,27.63,14.72,51.80,1023.93,2045.99,2432.07,2313.22,2580.85,599.52,605.08,32.94,0000 0000 0000 0000 000000
2015-12-30 03:02:42,0.11,3.37,0.00,20.40,23.83,27.67,14.85,51.64,1023.95,2045.99,2430.76,2312.21,2579.67,600.13,605.78,32.99,0000 0000 0000 0000 000000
2015-12-30 03:07:43,0.09,3.38,0.00,20.39,23.82,27.62,14.85,51.58,1024.14,2045.99,2429.54,2311.18,2578.59,600.02,605.86,33.04,0000 0000 0000 0000 000000
2015-12-30 03:12:44,0.06,3.38,0.00,20.39,23.82,27.63,14.80,51.52,1023.99,2045.99,2428.63,2310.51,2577.82,599.82,605.54,33.09,0000 0000 0000 0000 000000
2015-12-30 03:17:45,0.04,3.39,0.00,20.37,23.81,27.65,14.80,51.81,1023.96,2045.99,2427.79,2309.94,2577.03,599.94,605.53,33.14,0000 0000 0000 0000 000000
2015-12-30 03:22:46,0.07,3.39,0.00,20.35,23.80,27.63,14.90,51.67,1024.32,2045.99,2426.99,2309.15,2576.38,600.17,606.24,33.20,0000 0000 0000 0000 000000
2015-12-30 03:27:47,0.05,3.39,0.00,20.33,23.80,27.62,14.79,51.79,1024.43,2045.99,2426.12,2308.77,2575.86,599.47,605.55,33.25,0000 0000 0000 0000 000000
2015-12-30 03:32:49,0.06,3.40,0.00,20.31,23.78,27.63,14.90,51.91,1024.38,2046.01,2425.37,2308.06,2575.07,600.05,606.11,33.30,0000 0000 0000 0000 000000
2015-12-30 03:37:50,0.07,3.40,0.00,20.30,23.77,27.60,14.82,51.78,1024.45,2046.00,2424.54,2307.53,2574.43,599.89,606.02,33.35,0000 0000 0000 0000 000000
2015-12-30 03:42:51,0.37,3.41,0.00,20.27,23.76,27.56,14.94,51.61,1024.69,2046.01,2420.49,2305.30,2572.20,600.15,606.57,33.40,0000 0000 0000 0000 000000
2015-12-30 03:47:52,0.25,3.43,0.00,20.27,23.75,27.56,14.83,51.83,1024.69,2046.00,2413.56,2302.19,2568.31,599.91,606.26,33.45,0000 0000 0000 0000 000000
2015-12-30 03:52:53,0.08,3.44,0.00,20.28,23.73,27.51,14.87,51.91,1024.47,2046.01,2412.41,2301.26,2567.53,600.42,606.72,33.50,0000 0000 0000 0000 000000
2015-12-30 03:57:55,0.03,3.44,0.00,20.28,23.72,27.52,14.82,51.70,1024.44,2046.05,2411.74,2300.97,2567.00,599.78,606.21,33.55,0000 0000 0000 0000 000000
2015-12-30 04:02:56,0.07,3.44,0.00,20.29,23.71,27.50,14.83,51.63,1024.46,2046.06,2411.00,2300.24,2566.32,599.57,605.71,33.60,0000 0000 0000 0000 000000
2015-12-30 04:07:57,0.03,3.44,0.00,20.28,23.70,27.52,14.83,51.82,1024.45,2046.07,2410.17,2299.97,2565.92,599.58,605.76,33.65,0000 0000 0000 0000 000000
2015-12-30 04:12:59,0.12,3.45,0.00,20.30,23.70,27.47,14.82,51.74,1024.43,2046.33,2409.61,2299.18,2565.13,599.98,606.14,33.70,0000 0000 0000 0000 000000
2015-12-30 04:18:00,0.04,3.45,0.00,20.30,23.67,27.48,14.85,51.47,1024.44,2046.49,2408.84,2298.89,2564.68,600.15,606.28,33.75,0000 0000 0000 0000 000000
2015-12-30 04:23:01,0.07,3.46,0.00,20.30,23.67,27.51,14.79,51.62,1024.42,2046.66,2408.02,2298.08,2564.01,599.74,606.03,33.80,0000 0000 0000 0000 000000
2015-12-30 04:28:02,0.07,3.46,0.00,20.30,23.67,27.47,14.84,51.60,1024.43,2046.74,2407.20,2297.69,2563.26,599.70,605.89,33.85,0000 0000 0000 0000 000000
2015-12-30 04:33:03,0.07,3.46,0.00,20.31,23.65,27.49,14.88,51.64,1024.43,2046.86,2406.41,2297.02,2562.79,600.01,606.12,33.90,0000 0000 0000 0000 000000
2015-12-30 04:38:05,0.07,3.47,0.00,20.31,23.65,27.47,14.79,51.67,1024.44,2046.93,2405.61,2296.49,2562.03,600.05,606.11,33.95,0000 0000 0000 0000 000000
2015-12-30 04:43:06,0.06,3.47,0.00,20.31,23.65,27.48,14.85,51.73,1024.43,2046.95,2404.67,2295.87,2561.23,599.79,605.69,34.00,0000 0000 0000 0000 000000
2015-12-30 04:48:07,0.07,3.47,0.00,20.31,23.64,27.45,14.78,51.66,1024.42,2046.95,2403.69,2295.04,2560.40,600.07,606.19,34.05,0000 0000 0000 0000 000000
2015-12-30 04:53:08,0.08,3.48,0.00,20.31,23.64,27.42,14.88,51.69,1024.44,2046.94,2402.74,2294.21,2559.60,600.09,606.26,34.10,0000 0000 0000 0000 000000
2015-12-30 04:58:10,0.05,3.48,0.00,20.30,23.62,27.41,14.71,51.61,1024.43,2046.96,2401.83,2293.72,2559.01,599.76,606.02,34.15,0000 0000 0000 0000 000000
2015-12-30 05:03:11,0.07,3.49,0.00,20.31,23.62,27.41,14.83,51.76,1024.44,2046.98,2400.80,2292.91,2558.27,600.09,606.25,34.21,0000 0000 0000 0000 000000
2015-12-30 05:08:12,0.07,3.49,0.00,20.31,23.62,27.43,14.87,51.63,1024.43,2046.97,2399.78,2292.07,2557.35,600.13,606.25,34.26,0000 0000 0000 0000 000000
2015-12-30 05:13:13,0.10,3.49,0.00,20.31,23.62,27.42,14.85,51.62,1024.43,2046.97,2398.51,2291.23,2556.36,600.22,606.29,34.31,0000 0000 0000 0000 000000
2015-12-30 05:18:15,0.09,3.50,0.00,20.32,23.62,27.48,14.76,51.44,1024.45,2046.97,2397.32,2290.34,2555.40,599.74,605.78,34.36,0000 0000 0000 0000 000000
2015-12-30 05:23:16,0.08,3.50,0.00,20.31,23.60,27.40,14.75,51.40,1024.66,2046.98,2396.10,2289.47,2554.41,599.84,605.99,34.41,0000 0000 0000 0000 000000
2015-12-30 05:28:17,0.09,3.51,0.00,20.33,23.60,27.40,14.83,51.51,1024.88,2046.99,2394.86,2288.60,2553.46,600.05,606.40,34.46,0000 0000 0000 0000 000000
2015-12-30 05:33:19,0.09,3.51,0.00,20.33,23.60,27.41,14.94,51.56,1024.85,2046.98,2393.67,2287.75,2552.38,600.20,606.59,34.51,0000 0000 0000 0000 000000
2015-12-30 05:38:20,0.08,3.52,0.00,20.32,23.60,27.40,14.84,51.50,1024.53,2046.99,2392.52,2286.87,2551.50,599.99,606.19,34.56,0000 0000 0000 0000 000000
2015-12-30 05:43:22,0.08,3.52,0.00,20.34,23.60,27.43,14.80,51.40,1024.52,2046.98,2391.36,2285.95,2550.44,600.06,606.06,34.61,0000 0000 0000 0000 000000
2015-12-30 05:48:23,0.09,3.53,0.00,20.32,23.60,27.40,14.78,51.28,1024.76,2046.99,2390.16,2285.08,2549.49,599.94,606.23,34.66,0000 0000 0000 0000 000000
2015-12-30 05:53:24,0.09,3.53,0.00,20.34,23.60,27.41,14.80,51.33,1024.85,2046.99,2389.00,2284.19,2548.48,599.82,606.11,34.71,0000 0000 0000 0000 000000
2015-12-30 05:58:26,0.09,3.54,0.00,20.36,23.60,27.34,14.80,51.29,1024.92,2046.99,2387.87,2283.39,2547.60,600.17,606.68,34.76,0000 0000 0000 0000 000000
2015-12-30 06:03:27,0.11,3.54,0.00,20.38,23.60,27.36,14.79,51.33,1024.92,2046.99,2386.53,2282.47,2546.52,600.14,606.35,34.81,0000 0000 0000 0000 000000
2015-12-30 06:08:28,0.15,3.55,0.00,20.38,23.60,27.40,14.80,51.48,1024.89,2046.99,2383.99,2280.94,2544.88,599.89,606.15,34.86,0000 0000 0000 0000 000000
2015-12-30 06:13:29,0.09,3.56,0.00,20.37,23.60,27.35,14.83,51.50,1024.92,2046.99,2382.66,2279.99,2543.84,600.19,606.47,34.91,0000 0000 0000 0000 000000
2015-12-30 06:18:31,0.09,3.56,0.00,20.37,23.60,27.39,14.80,51.52,1024.92,2046.99,2381.54,2279.10,2542.81,600.19,606.52,34.96,0000 0000 0000 0000 000000
2015-12-30 06:23:32,0.08,3.56,0.00,20.34,23.60,27.39,14.78,51.48,1024.92,2046.99,2380.55,2278.32,2541.94,600.19,606.58,35.01,0000 0000 0000 0000 000000
2015-12-30 06:28:33,0.07,3.57,0.00,20.34,23.60,27.38,14.79,51.47,1024.92,2046.99,2379.61,2277.66,2541.07,599.89,606.26,35.07,0000 0000 0000 0000 000000
2015-12-30 06:33:35,0.07,3.57,0.00,20.36,23.60,27.43,14.71,51.46,1024.92,2046.99,2378.57,2276.90,2540.18,599.75,605.93,35.12,0000 0000 0000 0000 000000
2015-12-30 06:38:36,0.08,3.58,0.00,20.35,23.60,27.40,14.78,51.50,1024.92,2046.98,2377.53,2276.07,2539.32,599.69,606.23,35.17,0000 0000 0000 0000 000000
2015-12-30 06:43:37,0.07,3.58,0.00,20.34,23.60,27.39,14.82,51.44,1024.97,2046.99,2376.71,2275.39,2538.58,600.18,606.54,35.22,0000 0000 0000 0000 000000
2015-12-30 06:48:39,0.06,3.58,0.00,20.36,23.60,27.43,14.82,51.33,1024.95,2046.99,2375.70,2274.75,2537.83,600.03,606.28,35.27,0000 0000 0000 0000 000000
2015-12-30 06:53:40,0.07,3.59,0.00,20.36,23.60,27.43,14.81,51.41,1025.03,2046.98,2374.73,2274.00,2536.98,599.97,606.36,35.32,0000 0000 0000 0000 000000
2015-12-30 06:58:41,0.08,3.59,0.00,20.35,23.60,27.39,14.82,51.42,1024.94,2046.98,2373.82,2273.21,2536.12,600.11,606.46,35.37,0000 0000 0000 0000 000000
2015-12-30 07:03:42,0.09,3.60,0.00,20.35,23.60,27.40,14.85,51.43,1024.98,2046.99,2372.83,2272.48,2535.29,600.05,606.35,35.42,0000 0000 0000 0000 000000
2015-12-30 07:08:44,0.04,3.60,0.00,20.34,23.60,27.36,14.79,51.58,1024.93,2046.97,2371.92,2271.95,2534.57,600.05,606.42,35.47,0000 0000 0000 0000 000000
2015-12-30 07:13:45,0.08,3.60,0.00,20.34,23.60,27.43,14.85,51.57,1024.92,2046.98,2370.95,2271.13,2533.79,600.05,606.17,35.52,0000 0000 0000 0000 000000
2015-12-30 07:18:46,0.07,3.61,0.00,20.32,23.60,27.38,14.83,51.61,1024.92,2046.99,2370.00,2270.30,2532.96,600.27,606.63,35.57,0000 0000 0000 0000 000000
2015-12-30 07:23:47,0.08,3.61,0.00,20.31,23.60,27.38,14.85,51.71,1024.92,2046.98,2369.04,2269.65,2532.09,599.74,606.15,35.62,0000 0000 0000 0000 000000
2015-12-30 07:28:48,0.06,3.61,0.00,20.31,23.60,27.42,14.82,51.47,1024.92,2046.99,2368.03,2268.95,2531.24,600.00,606.36,35.67,0000 0000 0000 0000 000000
2015-12-30 07:33:50,0.08,3.62,0.00,20.30,23.59,27.39,14.79,51.49,1025.02,2046.98,2367.10,2268.12,2530.44,599.81,606.30,35.72,0000 0000 0000 0000 000000
2015-12-30 07:38:51,0.08,3.62,0.00,20.29,23.57,27.40,14.86,51.45,1025.35,2046.97,2366.23,2267.40,2529.58,600.14,606.73,35.77,0000 0000 0000 0000 000000
2015-12-30 07:43:52,0.05,3.63,0.00,20.31,23.57,27.38,14.84,51.47,1025.38,2046.98,2365.36,2266.80,2528.88,600.06,606.73,35.82,0000 0000 0000 0000 000000
2015-12-30 07:48:53,0.07,3.63,0.00,20.31,23.57,27.39,14.86,51.40,1025.40,2046.99,2364.44,2266.04,2528.06,599.97,606.62,35.87,0000 0000 0000 0000 000000
2015-12-30 07:53:55,0.08,3.63,0.00,20.33,23.57,27.41,14.88,51.48,1025.40,2046.98,2363.61,2265.34,2527.39,600.20,606.81,35.93,0000 0000 0000 0000 000000
2015-12-30 07:58:56,0.06,3.64,0.00,20.32,23.56,27.38,14.89,51.41,1025.40,2046.98,2362.62,2264.83,2526.60,599.93,606.66,35.98,0000 0000 0000 0000 000000
2015-12-30 08:03:58,0.06,3.64,0.00,20.32,23.55,27.38,14.91,51.42,1025.44,2046.99,2361.70,2264.05,2525.90,600.15,606.86,36.03,0000 0000 0000 0000 000000
2015-12-30 08:08:59,0.06,3.64,0.00,20.33,23.55,27.34,14.86,51.27,1025.77,2046.99,2360.91,2263.49,2525.08,600.27,607.11,36.08,0000 0000 0000 0000 000000
2015-12-30 08:14:00,0.07,3.65,0.00,20.33,23.55,27.35,14.98,51.38,1025.86,2046.99,2360.02,2262.76,2524.28,600.14,606.98,36.13,0000 0000 0000 0000 000000
2015-12-30 08:19:01,0.07,3.65,0.00,20.36,23.55,27.33,14.91,51.52,1025.88,2046.99,2359.07,2262.00,2523.39,600.20,607.18,36.18,0000 0000 0000 0000 000000
2015-12-30 08:24:03,0.09,3.66,0.00,20.33,23.55,27.33,14.80,51.48,1025.74,2046.98,2358.09,2261.19,2522.51,599.75,606.59,36.23,0000 0000 0000 0000 000000
2015-12-30 08:29:04,0.07,3.66,0.00,20.33,23.55,27.36,14.84,51.57,1025.50,2046.97,2357.05,2260.44,2521.74,600.03,606.64,36.28,0000 0000 0000 0000 000000
2015-12-30 08:34:05,0.06,3.66,0.00,20.32,23.55,27.36,14.81,51.52,1025.61,2046.98,2356.19,2259.80,2520.92,599.79,606.64,36.33,0000 0000 0000 0000 000000
2015-12-30 08:39:07,0.07,3.67,0.00,20.30,23.55,27.35,14.79,51.44,1025.81,2046.97,2355.23,2259.03,2520.06,600.13,607.14,36.38,0000 0000 0000 0000 000000
2015-12-30 08:44:08,0.09,3.67,0.00,20.30,23.55,27.37,14.80,51.45,1025.87,2046.98,2354.24,2258.29,2519.26,599.79,606.73,36.43,0000 0000 0000 0000 000000
2015-12-30 08:49:09,0.06,3.67,0.00,20.31,23.55,27.36,14.89,51.58,1025.87,2046.97,2353.19,2257.73,2518.54,600.33,607.30,36.48,0000 0000 0000 0000 000000
2015-12-30 08:54:10,0.05,3.68,0.00,20.29,23.54,27.34,14.82,51.54,1025.89,2046.99,2352.26,2257.03,2517.99,599.87,606.87,36.53,0000 0000 0000 0000 000000
2015-12-30 08:59:12,0.07,3.68,0.00,20.30,23.53,27.40,14.84,51.42,1025.89,2046.98,2351.59,2256.56,2517.22,599.81,606.81,36.58,0000 0000 0000 0000 000000
2015-12-30 09:04:13,0.06,3.68,0.00,20.29,23.52,27.39,14.84,51.43,1025.90,2046.99,2350.63,2255.89,2516.56,599.72,606.82,36.63,0000 0000 0000 0000 000000
2015-12-30 09:09:14,0.46,3.70,0.00,20.29,23.52,27.38,14.86,51.40,1025.93,2046.98,2346.25,2253.23,2514.00,600.03,607.04,36.68,0000 0000 0000 0000 000000
2015-12-30 09:14:16,0.12,3.71,0.00,20.30,23.52,27.38,14.81,51.34,1026.21,2046.98,2341.52,2250.98,2511.07,599.80,607.06,36.73,0000 0000 0000 0000 000000
2015-12-30 09:19:17,0.06,3.72,0.00,20.27,23.51,27.36,14.83,51.42,1026.17,2046.97,2340.89,2250.17,2510.20,599.81,607.04,36.78,0000 0000 0000 0000 000000
2015-12-30 09:24:18,0.07,3.72,0.00,20.25,23.50,27.31,14.85,51.39,1026.20,2046.96,2339.99,2249.69,2509.50,600.02,607.29,36.83,0000 0000 0000 0000 000000
2015-12-30 09:29:19,0.06,3.73,0.00,20.25,23.50,27.37,14.94,51.35,1026.35,2046.98,2339.06,2248.97,2508.76,600.39,607.76,36.89,0000 0000 0000 0000 000000
2015-12-30 09:34:20,0.08,3.73,0.00,20.23,23.50,27.35,14.77,51.36,1026.35,2046.99,2338.05,2248.14,2507.99,599.79,607.22,36.94,0000 0000 0000 0000 000000
2015-12-30 09:39:22,0.07,3.73,0.00,20.24,23.49,27.35,14.88,51.46,1026.37,2046.98,2337.08,2247.58,2507.14,599.99,607.35,36.99,0000 0000 0000 0000 000000
2015-12-30 09:44:23,0.07,3.74,0.00,20.26,23.48,27.41,14.82,51.36,1026.38,2046.98,2336.15,2246.89,2506.26,599.69,607.07,37.04,0000 0000 0000 0000 000000
2015-12-30 09:49:24,0.07,3.74,0.00,20.25,23.47,27.38,14.91,51.34,1026.39,2046.99,2335.23,2246.08,2505.67,600.33,607.74,37.09,0000 0000 0000 0000 000000
2015-12-30 09:54:26,0.07,3.75,0.00,20.24,23.47,27.31,14.87,51.32,1026.39,2046.98,2334.34,2245.51,2504.93,599.82,607.36,37.14,0000 0000 0000 0000 000000
2015-12-30 09:59:27,0.06,3.75,0.00,20.23,23.46,27.36,14.88,51.37,1026.39,2046.99,2333.37,2244.90,2504.09,599.69,607.15,37.19,0000 0000 0000 0000 000000
2015-12-30 10:04:29,0.08,3.75,0.00,20.21,23.45,27.34,14.86,51.40,1026.38,2046.99,2332.58,2244.08,2503.39,600.18,607.64,37.24,0000 0000 0000 0000 000000
2015-12-30 10:09:30,0.07,3.76,0.00,20.21,23.45,27.30,14.85,51.36,1026.39,2046.99,2331.41,2243.38,2502.42,599.98,607.58,37.29,0000 0000 0000 0000 000000
2015-12-30 10:14:31,0.57,3.78,0.00,20.19,23.45,27.36,14.87,51.31,1026.39,2046.98,2323.12,2239.38,2497.78,599.59,607.11,37.34,0000 0000 0000 0000 000000
2015-12-30 10:19:32,0.07,3.79,0.00,20.19,23.44,27.34,14.80,51.17,1026.39,2046.99,2321.62,2238.39,2496.93,599.34,606.87,37.39,0000 0000 0000 0000 000000
2015-12-30 10:24:34,0.04,3.79,0.00,20.18,23.42,27.30,14.86,51.17,1026.40,2046.98,2320.89,2237.99,2496.12,600.04,607.60,37.44,0000 0000 0000 0000 000000
2015-12-30 10:29:35,0.06,3.79,0.00,20.17,23.42,27.32,14.81,51.18,1026.40,2046.99,2320.04,2237.36,2495.80,599.80,607.24,37.49,0000 0000 0000 0000 000000
2015-12-30 10:34:36,0.04,3.80,0.00,20.16,23.42,27.31,14.90,51.33,1026.43,2046.99,2319.20,2236.97,2495.05,600.22,607.76,37.54,0000 0000 0000 0000 000000
2015-12-30 10:39:38,0.07,3.80,0.00,20.18,23.40,27.32,14.85,51.27,1026.57,2046.99,2318.56,2236.23,2494.70,600.17,607.83,37.59,0000 0000 0000 0000 000000
2015-12-30 10:44:39,0.02,3.80,0.00,20.16,23.40,27.29,14.86,51.42,1026.62,2046.99,2317.91,2235.98,2494.04,600.06,607.77,37.64,0000 0000 0000 0000 000000
2015-12-30 10:49:40,0.06,3.81,0.00,20.14,23.39,27.27,14.77,51.38,1026.58,2046.99,2317.08,2235.38,2493.83,599.71,607.46,37.69,0000 0000 0000 0000 000000
2015-12-30 10:54:41,0.04,3.81,0.00,20.12,23.38,27.29,14.84,51.33,1026.55,2046.99,2316.72,2235.01,2493.08,600.39,608.15,37.75,0000 0000 0000 0000 000000
2015-12-30 10:59:43,0.04,3.81,0.00,20.12,23.37,27.22,14.88,51.35,1026.51,2046.99,2316.02,2234.67,2492.84,600.09,607.81,37.80,0000 0000 0000 0000 000000
2015-12-30 11:04:44,0.05,3.81,0.00,20.10,23.37,27.28,14.85,51.45,1026.79,2046.99,2315.40,2234.04,2492.09,599.73,607.74,37.85,0000 0000 0000 0000 000000
2015-12-30 11:09:45,0.00,3.81,0.00,20.08,23.37,27.26,14.82,51.33,1026.84,2046.99,2315.00,2233.98,2491.97,600.25,608.26,37.90,0000 0000 0000 0000 000000
2015-12-30 11:14:46,0.08,3.82,0.00,20.07,23.37,27.24,14.88,51.44,1026.79,2046.99,2314.34,2233.36,2491.27,599.73,607.63,37.95,0000 0000 0000 0000 000000
2015-12-30 11:19:47,0.01,3.82,0.00,20.07,23.35,27.26,14.85,51.35,1026.87,2046.99,2313.94,2233.02,2490.99,600.29,608.36,38.00,0000 0000 0000 0000 000000
2015-12-30 11:24:49,0.04,3.82,0.00,20.06,23.35,27.26,14.88,51.39,1026.80,2046.99,2313.16,2232.88,2490.63,600.08,608.18,38.05,0000 0000 0000 0000 000000
2015-12-30 11:29:50,0.06,3.82,0.00,20.04,23.35,27.24,14.81,51.33,1026.66,2046.99,2312.64,2232.13,2490.03,599.95,608.16,38.10,0000 0000 0000 0000 000000
2015-12-30 11:34:51,0.02,3.83,0.00,20.02,23.33,27.24,14.88,51.39,1026.80,2046.99,2311.98,2231.98,2489.79,599.93,608.06,38.15,0000 0000 0000 0000 000000
2015-12-30 11:39:53,0.08,3.83,0.00,20.01,23.32,27.22,14.91,51.53,1026.87,2046.99,2311.16,2231.26,2489.03,600.18,608.50,38.20,0000 0000 0000 0000 000000
2015-12-30 11:44:54,0.05,3.83,0.00,20.00,23.32,27.18,14.91,51.51,1026.87,2046.99,2310.44,2230.91,2488.47,600.16,608.36,38.25,0000 0000 0000 0000 000000
2015-12-30 11:49:55,0.06,3.84,0.00,19.98,23.32,27.18,14.91,51.52,1026.87,2046.99,2309.68,2230.10,2487.92,600.50,608.68,38.30,0000 0000 0000 0000 000000
2015-12-30 11:54:57,0.08,3.84,0.00,19.96,23.31,27.18,14.87,51.44,1026.87,2046.99,2308.68,2229.50,2487.07,599.89,608.19,38.35,0000 0000 0000 0000 000000
2015-12-30 11:59:58,0.06,3.84,0.00,19.96,23.30,27.16,14.88,51.40,1026.87,2046.99,2307.75,2228.81,2486.16,600.44,608.79,38.40,0000 0000 0000 0000 000000
2015-12-30 12:05:00,0.08,3.85,0.00,19.95,23.29,27.14,14.84,51.38,1026.87,2046.99,2306.82,2228.03,2485.37,599.93,608.29,38.45,0000 0000 0000 0000 000000
2015-12-30 12:10:01,0.06,3.85,0.00,19.94,23.29,27.21,14.90,51.28,1026.87,2046.99,2305.98,2227.36,2484.85,599.71,608.24,38.50,0000 0000 0000 0000 000000
2015-12-30 12:15:02,0.05,3.85,0.00,19.91,23.29,27.12,14.91,51.52,1026.87,2046.99,2305.15,2227.00,2484.07,599.90,608.29,38.55,0000 0000 0000 0000 000000
2015-12-30 12:20:03,0.07,3.86,0.00,19.90,23.27,27.11,14.83,51.38,1026.87,2047.00,2304.46,2226.38,2483.67,599.82,608.24,38.60,0000 0000 0000 0000 000000
2015-12-30 12:25:04,0.02,3.86,0.00,19.91,23.27,27.16,14.89,51.54,1026.87,2047.02,2303.89,2226.00,2483.03,600.15,608.57,38.65,0000 0000 0000 0000 000000
2015-12-30 12:30:05,0.06,3.86,0.00,19.89,23.26,27.15,14.82,51.40,1026.87,2047.01,2303.09,2225.62,2482.78,600.20,608.60,38.71,0000 0000 0000 0000 000000
2015-12-30 12:35:06,0.03,3.86,0.00,19.87,23.25,27.15,14.89,51.46,1026.87,2047.02,2302.87,2225.02,2482.05,600.20,608.67,38.76,0000 0000 0000 0000 000000
2015-12-30 12:40:08,0.03,3.87,0.00,19.86,23.24,27.16,14.86,51.46,1026.87,2047.02,2302.07,2224.93,2481.93,599.69,608.21,38.81,0000 0000 0000 0000 000000
2015-12-30 12:45:09,0.06,3.87,0.00,19.85,23.24,27.14,14.86,51.47,1026.87,2047.03,2301.72,2224.22,2481.21,600.04,608.45,38.86,0000 0000 0000 0000 000000
2015-12-30 12:50:10,0.03,3.87,0.00,19.84,23.22,27.08,14.84,51.47,1026.87,2047.12,2301.05,2224.01,2481.00,599.78,608.27,38.91,0000 0000 0000 0000 000000
2015-12-30 12:55:11,0.02,3.87,0.00,19.85,23.22,27.09,14.91,51.45,1026.87,2047.12,2300.75,2223.97,2480.86,600.34,608.76,38.96,0000 0000 0000 0000 000000